Montgomery, AL

12:39 AM CDT on July 21, 2017 (GMT -0500)
Montgomery Regional

Weather History for KMGM - August, 2014

Change the Weather History Date:

Saturday, August 9, 2014

  Actual Average Record
Temperature  
Mean Temperature 86 °F 82 °F  
Max Temperature 97 °F 92 °F 104 °F (1954)
Min Temperature 74 °F 72 °F 59 °F (2008)
Cooling Degree Days 21 17  
Month to date cooling degree days 169 153  
Year to date cooling degree days 1515 1432  
Since 1 June cooling degree days 1149 1093  
Growing Degree Days 35 (Base 50)    
Moisture  
Dew Point 73 °F    
Average Humidity 70    
Maximum Humidity 94    
Minimum Humidity 45    
Precipitation  
Precipitation 0.56 in 0.12 in 2.63 in (1978)
Month to date precipitation 1.31 1.20  
Year to date precipitation 37.65 33.95  
Sea Level Pressure  
Sea Level Pressure 30.00 in    
Wind  
Wind Speed 2 mph (NW)    
Max Wind Speed 16 mph    
Max Gust Speed 22 mph    
Visibility 7 miles    
Events Rain , Thunderstorm    
T = Trace of Precipitation, MM = Missing Value Source: NWS Daily Summary

Daily Weather History Graph

Daily Weather History Graph

Search for Another Location

Airport or City:

Trip Planner

Search our weather history database for the weather conditions in past years. The results will help you decide how hot, cold, wet, or windy it might be!

Date:

Astronomy

Aug. 09, 2014 Rise Set
Actual Time 6:05 AM CDT 7:35 PM CDT
Civil Twilight 5:39 AM CDT 8:02 PM CDT
Nautical Twilight 5:08 AM CDT 8:33 PM CDT
Astronomical Twilight 4:35 AM CDT 9:06 PM CDT
Moon 6:38 PM CDT (8/9) 4:46 AM CDT (8/9)
Length of Visible Light 14h 22m
Length of Day
13h 30m
Waxing Gibbous, 98% of the Moon is Illuminated
Aug 9
Waxing Gibbous
Aug 10
Full
Aug 17
Last Quarter
Aug 25
New
Sep 2
First Quarter

Hourly Weather History & Observations

Time (CDT) Temp. Heat Index Dew Point Humidity Pressure Visibility Wind Dir Wind Speed Gust Speed Precip Events Conditions
12:53 AM 75.0 °F - 70.0 °F 84% 30.01 in 10.0 mi East 3.5 mph - N/A   Clear
1:53 AM 75.0 °F - 71.1 °F 87% 29.99 in 10.0 mi Calm Calm - N/A   Clear
2:53 AM 75.9 °F - 72.0 °F 87% 29.99 in 9.0 mi Calm Calm - N/A   Clear
3:53 AM 73.9 °F - 71.1 °F 91% 29.99 in 10.0 mi Calm Calm - N/A   Scattered Clouds
4:53 AM 73.9 °F - 71.1 °F 91% 30.00 in 8.0 mi Calm Calm - N/A   Partly Cloudy
5:53 AM 75.0 °F - 73.0 °F 94% 30.00 in 6.0 mi Calm Calm - N/A   Clear
6:53 AM 75.2 °F - 73.4 °F 94% 30.02 in 6.0 mi Calm Calm - N/A   Clear
7:53 AM 78.1 °F - 73.9 °F 87% 30.03 in 7.0 mi Calm Calm - N/A   Scattered Clouds
8:53 AM 82.0 °F 88.6 °F 75.0 °F 79% 30.03 in 8.0 mi SW 4.6 mph - N/A   Smoke
9:23 AM 84.2 °F 92.3 °F 75.2 °F 74% 30.04 in 7.0 mi WSW 5.8 mph - N/A   Smoke
9:53 AM 87.1 °F 96.3 °F 75.0 °F 67% 30.03 in 10.0 mi Calm Calm - N/A   Smoke
10:53 AM 89.1 °F 99.1 °F 75.0 °F 63% 30.03 in 10.0 mi South 5.8 mph - N/A   Smoke
12:53 PM 91.9 °F 101.3 °F 73.9 °F 55% 29.99 in 10.0 mi South 3.5 mph - N/A   Smoke
1:53 PM 95.0 °F 104.5 °F 73.0 °F 49% 29.95 in 10.0 mi SSW 5.8 mph - N/A   Smoke
2:53 PM 97.0 °F 105.5 °F 72.0 °F 44% 29.91 in 10.0 mi WSW 8.1 mph - N/A   Smoke
3:14 PM 96.8 °F 103.1 °F 69.8 °F 41% 29.93 in 10.0 mi SSW 6.9 mph - N/A Thunderstorm Unknown
3:53 PM 84.9 °F 90.7 °F 72.0 °F 65% 29.97 in 10.0 mi North 4.6 mph 16.1 mph N/A Thunderstorm Overcast
4:20 PM 82.4 °F 87.2 °F 71.6 °F 70% 29.96 in 10.0 mi NW 9.2 mph - N/A   Mostly Cloudy
4:53 PM 80.1 °F 84.5 °F 73.9 °F 81% 29.96 in 7.0 mi ENE 3.5 mph - 0.02 in Rain Light Rain
5:25 PM 78.8 °F - 73.4 °F 83% 30.01 in 5.0 mi NW 9.2 mph - 0.00 in Rain , Thunderstorm Rain
5:29 PM 78.8 °F - 73.4 °F 83% 30.02 in 2.5 mi NNW 6.9 mph - 0.02 in Rain , Thunderstorm Heavy Rain
5:34 PM 77.0 °F - 73.4 °F 89% 30.02 in 3.0 mi NNW 10.4 mph 19.6 mph 0.06 in Rain Light Rain
5:42 PM 75.2 °F - 71.6 °F 89% 30.02 in 5.0 mi NNW 13.8 mph 21.9 mph 0.09 in Rain , Thunderstorm Rain
5:46 PM 75.2 °F - 71.6 °F 89% 30.02 in 1.8 mi NW 16.1 mph 21.9 mph 0.09 in Rain , Thunderstorm Rain
5:49 PM 75.2 °F - 71.6 °F 89% 30.03 in 1.0 mi NW 10.4 mph 21.9 mph 0.15 in Rain , Thunderstorm Heavy Rain
5:53 PM 75.0 °F - 72.0 °F 90% 30.02 in 0.8 mi North 8.1 mph 21.9 mph 0.29 in Rain , Thunderstorm Heavy Rain
5:59 PM 75.2 °F - 71.6 °F 89% 30.03 in 1.2 mi NNW 6.9 mph - 0.06 in Rain , Thunderstorm Heavy Rain
6:02 PM 75.2 °F - 71.6 °F 89% 30.02 in 2.0 mi North 6.9 mph - 0.08 in Rain , Thunderstorm Heavy Rain
6:08 PM 75.2 °F - 71.6 °F 89% 30.01 in 3.0 mi North 6.9 mph - N/A Rain Rain
6:16 PM 75.2 °F - 73.4 °F 94% 30.00 in 2.5 mi NNE 5.8 mph - 0.15 in Rain Heavy Rain
6:26 PM 75.2 °F - 73.4 °F 94% 29.99 in 5.0 mi East 6.9 mph - 0.16 in Rain Light Rain
6:53 PM 75.0 °F - 72.0 °F 90% 30.00 in 4.0 mi SSE 4.6 mph - 0.19 in Rain Rain
7:53 PM 75.0 °F - 72.0 °F 90% 30.02 in 10.0 mi SW 4.6 mph - 0.06 in   Mostly Cloudy
8:53 PM 75.0 °F - 72.0 °F 90% 30.01 in 10.0 mi Calm Calm - N/A   Partly Cloudy
9:53 PM 75.2 °F - 71.6 °F 89% 30.03 in 10.0 mi Calm Calm - N/A   Clear
10:53 PM 75.2 °F - 73.4 °F 94% 30.03 in 10.0 mi Calm Calm - N/A   Clear
11:53 PM 75.0 °F - 73.0 °F 94% 30.01 in 8.0 mi Calm Calm - N/A   Clear